DW4847 Weather Reports


Display with metric or nautical units.
time (UTC)temp
F
wind
direction
speed
MPH
gust
MPH
rain 1hr
in
rain 24hr
in
rain mn
in
humidity
%
barometer
mb
20260507040533 45 336 0.0 4.0 0.00 0.39 0.00 92 1007.4
20260507040027 46 275 1.0 4.0 0.00 0.39 0.00 92 1007.6
20260507035602 46 291 1.0 4.0 0.00 0.39 0.39 92 1007.3
20260507035027 46 335 2.0 5.0 0.00 0.39 0.39 92 1007.2
20260507034522 46 223 0.0 7.0 0.00 0.39 0.39 92 1007.4
20260507034038 46 266 3.0 7.0 0.00 0.39 0.39 91 1007.5
20260507033521 46 179 1.0 5.0 0.00 0.39 0.39 91 1007.4
20260507033035 46 315 2.0 5.0 0.00 0.39 0.39 91 1007.2
20260507032541 46 299 1.0 4.0 0.00 0.39 0.39 91 1007.4
20260507032055 46 216 2.0 4.0 0.00 0.39 0.39 91 1007.3
20260507031529 46 298 2.0 5.0 0.00 0.39 0.39 91 1007.5
20260507031045 46 315 1.0 5.0 0.00 0.39 0.39 91 1007.6
20260507030529 46 283 1.0 5.0 0.00 0.39 0.39 91 1007.6
20260507030043 46 295 2.0 5.0 0.00 0.39 0.39 91 1007.6
20260507025528 46 297 2.0 6.0 0.00 0.39 0.39 91 1007.6
20260507025022 46 330 2.0 7.0 0.00 0.39 0.39 91 1007.6
20260507024550 46 321 3.0 7.0 0.00 0.39 0.39 91 1007.4
20260507024033 46 277 2.0 5.0 0.01 0.39 0.39 91 1007.4
20260507023528 46 257 2.0 6.0 0.01 0.39 0.39 91 1007.4
20260507023043 46 300 1.0 6.0 0.01 0.39 0.39 91 1007.5
20260507022529 46 298 2.0 6.0 0.01 0.39 0.39 91 1007.4
20260507022044 46 324 2.0 7.0 0.01 0.39 0.39 91 1007.5
20260507021539 46 242 1.0 7.0 0.02 0.39 0.39 91 1007.5
20260507021023 47 221 2.0 6.0 0.02 0.39 0.39 90 1007.6
20260507020538 47 317 1.0 5.0 0.02 0.39 0.39 90 1007.6
20260507020023 47 331 2.0 5.0 0.03 0.39 0.39 91 1007.6
20260507015535 47 267 2.0 5.0 0.03 0.39 0.39 90 1007.5
20260507015049 47 223 1.0 5.0 0.03 0.39 0.39 90 1007.6
20260507014604 47 280 1.0 5.0 0.03 0.39 0.39 90 1007.4
20260507014030 47 231 1.0 5.0 0.02 0.38 0.38 90 1007.3
20260507013524 47 313 0.0 5.0 0.03 0.38 0.38 90 1007.3
20260507013059 48 202 1.0 5.0 0.03 0.38 0.38 90 1007.3
20260507012542 48 236 1.0 5.0 0.03 0.38 0.38 90 1007.4
20260507012037 48 322 0.0 5.0 0.03 0.38 0.38 90 1007.6
20260507011545 48 276 2.0 5.0 0.02 0.37 0.37 89 1007.5
20260507011030 49 172 1.0 5.0 0.02 0.37 0.37 90 1007.5
20260507010544 49 229 1.0 5.0 0.02 0.37 0.37 90 1007.2
20260507010027 49 229 1.0 4.0 0.01 0.36 0.36 90 1007.2
20260507005540 50 262 1.0 5.0 0.01 0.36 0.36 90 1006.9
20260507005026 50 355 1.0 10.0 0.01 0.36 0.36 90 1006.8
20260507004539 50 238 1.0 4.0 0.02 0.36 0.36 90 1006.6
20260507004033 50 290 1.0 4.0 0.02 0.36 0.36 90 1006.5
20260507003608 51 273 0.0 3.0 0.01 0.35 0.35 90 1006.6
20260507003034 51 287 0.0 3.0 0.02 0.35 0.35 90 1006.3
20260507002528 51 338 1.0 5.0 0.02 0.35 0.35 90 1006.1
20260507002103 51 301 3.0 5.0 0.02 0.35 0.35 89 1006.1
20260507001528 51 252 1.0 3.0 0.02 0.35 0.35 90 1006.4
20260507001041 51 211 1.0 3.0 0.02 0.35 0.35 89 1006.4
20260507000525 52 262 0.0 4.0 0.02 0.35 0.35 89 1006.3
20260507000040 52 318 2.0 5.0 0.02 0.35 0.35 89 1006.1
20260506235534 53 221 0.0 7.0 0.02 0.35 0.35 88 1006.2
20260506235038 54 298 3.0 7.0 0.02 0.35 0.35 87 1006.0
20260506234551 55 311 2.0 10.0 0.01 0.34 0.34 87 1005.9
20260506234025 56 214 3.0 10.0 0.01 0.34 0.34 87 1005.6
20260506233556 57 280 3.0 8.0 0.00 0.33 0.33 91 1005.3
20260506233049 58 189 0.0 2.0 0.00 0.33 0.33 91 1004.7
20260506232532 58 178 1.0 2.0 0.01 0.33 0.33 91 1004.7
20260506232047 58 189 0.0 1.0 0.01 0.33 0.33 91 1004.7
20260506231532 58 189 0.0 3.0 0.01 0.33 0.33 91 1004.6
20260506231026 58 189 1.0 5.0 0.01 0.33 0.33 91 1004.7
20260506230532 58 142 1.0 5.0 0.01 0.33 0.33 91 1004.7
20260506230024 58 178 0.0 3.0 0.01 0.33 0.33 91 1004.8
20260506225540 58 179 0.0 3.0 0.01 0.33 0.33 91 1004.7
20260506225023 58 179 1.0 3.0 0.02 0.33 0.33 91 1004.7
20260506224538 58 148 1.0 3.0 0.02 0.33 0.33 91 1004.7
20260506224025 58 147 0.0 3.0 0.02 0.33 0.33 91 1004.6
20260506223600 58 178 1.0 2.0 0.03 0.33 0.33 91 1004.6
20260506223033 58 221 0.0 1.0 0.03 0.33 0.33 91 1004.6
20260506222547 58 221 0.0 2.0 0.02 0.32 0.32 91 1004.7
20260506222031 58 222 1.0 3.0 0.03 0.32 0.32 91 1004.7
20260506221525 58 222 0.0 3.0 0.03 0.32 0.32 91 1004.7
20260506221039 58 178 1.0 4.0 0.03 0.32 0.32 91 1004.6
20260506220611 58 179 0.0 8.0 0.03 0.32 0.32 91 1004.7
20260506220036 58 313 2.0 8.0 0.03 0.32 0.32 91 1004.7
20260506215529 58 257 0.0 2.0 0.03 0.32 0.32 91 1004.8
20260506215029 58 313 1.0 3.0 0.02 0.31 0.31 91 1004.7
20260506214523 58 311 1.0 3.0 0.02 0.31 0.31 91 1004.7
20260506214029 58 132 0.0 2.0 0.02 0.31 0.31 91 1004.8
20260506213524 58 134 0.0 3.0 0.01 0.30 0.30 91 1004.8
20260506213059 58 132 1.0 3.0 0.01 0.30 0.30 91 1004.7
20260506212524 58 138 1.0 4.0 0.01 0.30 0.30 91 1004.8
20260506212037 58 183 1.0 5.0 0.00 0.29 0.29 91 1004.8
20260506211551 58 136 2.0 5.0 0.00 0.29 0.29 91 1004.7
20260506211044 58 121 1.0 5.0 0.01 0.29 0.29 91 1004.7
20260506210559 58 106 1.0 8.0 0.01 0.29 0.29 90 1004.7
20260506210023 58 298 1.0 3.0 0.01 0.29 0.29 90 1004.7
20260506205539 58 107 1.0 3.0 0.02 0.29 0.29 90 1004.7
20260506205025 58 167 0.0 5.0 0.03 0.29 0.29 90 1004.8
20260506204541 58 194 1.0 5.0 0.04 0.29 0.29 91 1004.8
20260506204026 58 284 1.0 4.0 0.04 0.29 0.29 91 1004.9
20260506203539 58 217 0.0 5.0 0.05 0.29 0.29 90 1004.8
20260506203035 58 217 2.0 5.0 0.06 0.29 0.29 90 1004.9
20260506202540 58 328 0.0 3.0 0.06 0.29 0.29 90 1004.9
20260506202035 58 144 1.0 3.0 0.07 0.29 0.29 90 1005.0
20260506201546 58 269 1.0 4.0 0.07 0.29 0.29 90 1005.0
20260506201032 58 330 1.0 4.0 0.07 0.28 0.28 90 1005.0
20260506200539 58 197 0.0 2.0 0.07 0.28 0.28 90 1005.0
20260506200025 58 198 0.0 3.0 0.07 0.27 0.27 90 1005.2
20260506195540 58 198 1.0 4.0 0.08 0.27 0.27 90 1005.2
20260506195025 58 289 0.0 4.0 0.09 0.26 0.26 90 1005.2
20260506194539 58 216 0.0 3.0 0.09 0.25 0.25 90 1005.3
20260506194033 58 216 1.0 3.0 0.09 0.25 0.25 89 1005.3
20260506193538 58 65 1.0 5.0 0.08 0.24 0.24 89 1005.3
20260506193032 58 134 2.0 5.0 0.08 0.23 0.23 89 1005.4
20260506192548 59 119 0.0 3.0 0.08 0.23 0.23 89 1005.4
20260506192034 59 107 1.0 5.0 0.07 0.22 0.22 89 1005.4
20260506191528 59 145 3.0 5.0 0.07 0.22 0.22 89 1005.4
20260506191041 59 173 1.0 5.0 0.06 0.21 0.21 89 1005.4
20260506190525 59 105 1.0 4.0 0.07 0.21 0.21 89 1005.4
20260506190059 59 155 2.0 6.0 0.06 0.20 0.20 89 1005.4
20260506185533 59 142 3.0 6.0 0.06 0.19 0.19 88 1005.5
20260506185038 59 143 2.0 5.0 0.04 0.17 0.17 90 1005.6
20260506184532 59 153 1.0 3.0 0.03 0.16 0.16 89 1005.6
20260506184047 59 155 0.0 4.0 0.04 0.16 0.16 89 1005.5
20260506183533 59 147 0.0 4.0 0.04 0.16 0.16 89 1005.5
20260506183046 59 53 1.0 3.0 0.03 0.15 0.15 89 1005.6
20260506182531 59 162 1.0 5.0 0.03 0.15 0.15 89 1005.6
20260506182044 59 136 0.0 5.0 0.04 0.15 0.15 89 1005.9
20260506181533 59 145 0.0 3.0 0.04 0.15 0.15 90 1005.7
20260506181039 59 145 1.0 3.0 0.05 0.15 0.15 90 1005.8
20260506180534 59 118 0.0 2.0 0.05 0.14 0.14 90 1005.9
20260506180049 59 201 1.0 4.0 0.06 0.14 0.14 89 1006.0
20260506175533 59 156 1.0 3.0 0.06 0.13 0.13 90 1006.0
20260506175047 59 217 0.0 3.0 0.07 0.13 0.13 89 1006.1
20260506174532 59 31 0.0 2.0 0.09 0.13 0.13 89 1006.1
20260506174026 59 174 0.0 2.0 0.09 0.12 0.12 89 1006.1
20260506173531 59 167 0.0 2.0 0.10 0.12 0.12 89 1006.1
20260506173024 59 135 0.0 2.0 0.11 0.12 0.12 89 1006.1
20260506172538 59 135 1.0 2.0 0.11 0.12 0.12 89 1006.2
20260506172111 59 109 0.0 1.0 0.10 0.11 0.11 89 1006.3
20260506171534 59 109 0.0 1.0 0.11 0.11 0.11 89 1006.4
20260506171028 59 109 0.0 2.0 0.10 0.10 0.10 88 1006.6
20260506170539 59 109 0.0 2.0 0.09 0.09 0.09 87 1006.8
20260506170039 59 98 0.0 3.0 0.08 0.08 0.08 87 1007.0
20260506165551 60 160 1.0 3.0 0.07 0.07 0.07 87 1007.3
20260506165042 60 94 0.0 2.0 0.06 0.06 0.06 86 1007.3
20260506164528 60 129 0.0 3.0 0.04 0.04 0.04 85 1007.4
20260506164044 60 129 1.0 3.0 0.03 0.03 0.03 84 1007.2
20260506163531 60 105 0.0 3.0 0.02 0.02 0.02 85 1007.2
20260506163047 60 106 1.0 3.0 0.01 0.01 0.01 83 1007.1
20260506162529 61 170 0.0 3.0 0.01 0.01 0.01 82 1007.2
20260506162045 61 206 0.0 2.0 0.01 0.01 0.01 83 1007.2
20260506161538 61 230 1.0 3.0 0.00 0.00 0.00 81 1007.3
20260506161023 61 228 1.0 3.0 0.00 0.00 0.00 79 1007.4
20260506160534 62 355 0.0 4.0 0.00 0.00 0.00 80 1007.4
20260506160047 62 190 0.0 5.0 0.00 0.00 0.00 79 1007.5
20260506155551 62 311 2.0 5.0 0.00 0.00 0.00 77 1007.5
20260506155023 62 150 2.0 4.0 0.00 0.00 0.00 78 1007.5
20260506154536 62 355 0.0 3.0 0.00 0.00 0.00 77 1007.5
20260506154040 62 143 1.0 3.0 0.00 0.00 0.00 77 1007.6
20260506153554 62 167 1.0 4.0 0.00 0.00 0.00 76 1007.6
20260506153027 62 323 1.0 6.0 0.00 0.00 0.00 76 1007.7
20260506152533 62 297 2.0 6.0 0.00 0.00 0.00 75 1007.7
20260506152028 62 167 1.0 5.0 0.00 0.00 0.00 75 1007.8
20260506151603 62 309 3.0 5.0 0.00 0.00 0.00 75 1007.9
20260506151026 62 5 1.0 3.0 0.00 0.00 0.00 76 1007.8
20260506150535 62 175 0.0 5.0 0.00 0.00 0.00 76 1008.0
20260506150048 62 51 2.0 5.0 0.00 0.00 0.00 76 1008.1
20260506145534 62 128 2.0 3.0 0.00 0.00 0.00 75 1008.1
20260506145028 62 33 1.0 3.0 0.00 0.00 0.00 75 1008.1
20260506144533 62 164 1.0 3.0 0.00 0.00 0.00 75 1008.2
20260506144025 62 236 0.0 8.0 0.00 0.00 0.00 76 1008.1
20260506143538 62 242 2.0 8.0 0.00 0.00 0.00 75 1008.2
20260506143025 62 182 1.0 7.0 0.00 0.00 0.00 74 1008.1
20260506142541 63 227 1.0 4.0 0.00 0.00 0.00 75 1008.0
20260506142055 63 297 2.0 4.0 0.00 0.00 0.00 74 1008.0
20260506141539 63 307 2.0 4.0 0.00 0.00 0.00 75 1008.1
20260506141032 63 265 1.0 3.0 0.00 0.00 0.00 75 1008.2
20260506140546 63 247 0.0 3.0 0.00 0.00 0.00 75 1008.2
20260506140031 63 192 0.0 5.0 0.00 0.00 0.00 74 1008.0
20260506135525 63 182 2.0 5.0 0.00 0.00 0.00 74 1007.9
20260506135040 63 182 2.0 4.0 0.00 0.00 0.00 74 1007.9
20260506134525 63 224 1.0 3.0 0.00 0.00 0.00 74 1008.1
20260506134040 63 257 1.0 3.0 0.00 0.00 0.00 74 1007.9
20260506133525 63 257 1.0 8.0 0.00 0.00 0.00 75 1007.8
20260506133059 63 336 4.0 8.0 0.00 0.00 0.00 75 1007.7
20260506132546 62 289 1.0 5.0 0.00 0.00 0.00 76 1007.6
20260506132039 62 306 2.0 4.0 0.00 0.00 0.00 77 1007.8
20260506131553 62 180 1.0 4.0 0.00 0.00 0.00 77 1007.8
20260506131035 61 268 2.0 5.0 0.00 0.00 0.00 77 1007.7
20260506130550 61 218 3.0 5.0 0.00 0.00 0.00 77 1007.7
20260506130041 61 177 2.0 7.0 0.00 0.00 0.00 77 1007.9
20260506125552 61 136 2.0 7.0 0.00 0.00 0.00 77 1008.1
20260506125043 61 203 0.0 2.0 0.00 0.00 0.00 78 1008.2
20260506124529 61 251 0.0 3.0 0.00 0.00 0.00 78 1008.1
20260506124043 61 209 1.0 4.0 0.00 0.00 0.00 79 1008.3
20260506123558 61 126 0.0 4.0 0.00 0.00 0.00 79 1008.3
20260506123040 61 215 1.0 3.0 0.00 0.00 0.00 79 1008.4
20260506122535 60 254 1.0 3.0 0.00 0.00 0.00 80 1008.4
20260506122050 60 227 0.0 6.0 0.00 0.00 0.00 80 1008.5
20260506121536 60 155 1.0 6.0 0.00 0.00 0.00 80 1008.5
20260506121024 60 9 1.0 4.0 0.00 0.00 0.00 80 1008.5
20260506120536 59 265 1.0 4.0 0.00 0.00 0.00 81 1008.4
20260506120027 59 177 2.0 4.0 0.00 0.00 0.00 81 1008.3
20260506115557 59 157 0.0 4.0 0.00 0.00 0.00 82 1008.4
20260506115040 58 150 2.0 4.0 0.00 0.00 0.00 83 1008.3
20260506114535 57 224 2.0 4.0 0.00 0.00 0.00 84 1008.3
20260506114048 57 324 1.0 3.0 0.00 0.00 0.00 85 1008.3
20260506113533 56 323 0.0 3.0 0.00 0.00 0.00 85 1008.3
20260506113047 56 242 1.0 3.0 0.00 0.00 0.00 86 1008.4
20260506112541 56 17 0.0 0.0 0.00 0.00 0.00 86 1008.1
20260506112027 55 17 0.0 0.0 0.00 0.00 0.00 86 1008.5
20260506111603 55 17 0.0 0.0 0.00 0.00 0.00 86 1008.3
20260506111056 55 17 0.0 0.0 0.00 0.00 0.00 86 1008.3
20260506110549 55 17 0.0 0.0 0.00 0.00 0.00 86 1008.3
20260506110043 54 16 0.0 0.0 0.00 0.00 0.00 86 1008.2
20260506105527 54 15 0.0 0.0 0.00 0.00 0.00 87 1008.2
20260506105043 54 15 0.0 1.0 0.00 0.00 0.00 87 1008.2
20260506104529 54 14 0.0 4.0 0.00 0.00 0.00 87 1008.3
20260506104024 53 13 0.0 4.0 0.00 0.00 0.00 87 1008.6
20260506103553 53 236 0.0 1.0 0.00 0.00 0.00 86 1008.5
20260506103038 53 236 0.0 1.0 0.00 0.00 0.00 86 1008.3
20260506102533 52 236 0.0 0.0 0.00 0.00 0.00 86 1008.3
20260506102046 52 236 0.0 0.0 0.00 0.00 0.00 86 1008.2
20260506101550 52 236 0.0 1.0 0.00 0.00 0.00 86 1008.3
20260506101023 52 236 0.0 1.0 0.00 0.00 0.00 86 1008.3
20260506100538 52 237 0.0 0.0 0.00 0.00 0.00 85 1008.2
20260506100024 52 236 0.0 0.0 0.00 0.00 0.00 85 1008.1
20260506095559 52 236 0.0 0.0 0.00 0.00 0.00 85 1008.0
20260506095031 52 236 0.0 0.0 0.00 0.00 0.00 84 1007.9
20260506094536 53 239 0.0 0.0 0.00 0.00 0.00 84 1008.1
20260506094030 53 250 0.0 0.0 0.00 0.00 0.00 83 1008.0
20260506093543 53 250 0.0 1.0 0.00 0.00 0.00 83 1007.9
20260506093058 53 250 0.0 1.0 0.00 0.00 0.00 82 1007.9
20260506092541 53 250 0.0 1.0 0.00 0.00 0.00 82 1007.8
20260506092033 54 250 0.0 1.0 0.00 0.00 0.00 82 1007.9
20260506091537 54 250 0.0 0.0 0.00 0.00 0.00 82 1008.0
20260506091050 54 250 0.0 0.0 0.00 0.00 0.00 81 1008.1
20260506090522 54 250 0.0 0.0 0.00 0.00 0.00 81 1008.1
20260506090050 54 250 0.0 0.0 0.00 0.00 0.00 81 1008.1
20260506085602 55 250 0.0 0.0 0.00 0.00 0.00 80 1008.1
20260506085047 55 250 0.0 0.0 0.00 0.00 0.00 80 1008.1
20260506084539 55 250 0.0 0.0 0.00 0.00 0.00 79 1008.3
20260506084033 55 250 0.0 0.0 0.00 0.00 0.00 79 1008.2
20260506083606 56 250 0.0 0.0 0.00 0.00 0.00 78 1008.1
20260506083059 56 250 0.0 0.0 0.00 0.00 0.00 78 1008.0
20260506082541 56 250 0.0 0.0 0.00 0.00 0.00 78 1008.0
20260506082034 56 250 0.0 2.0 0.00 0.00 0.00 78 1008.1
20260506081550 56 250 0.0 2.0 0.00 0.00 0.00 77 1008.2
20260506081034 57 251 0.0 1.0 0.00 0.00 0.00 77 1008.2
20260506080544 57 250 0.0 2.0 0.00 0.00 0.00 77 1008.1
20260506073023 59 292 0.0 2.0 0.00 0.00 0.00 73 1008.1
20260506072538 59 294 0.0 1.0 0.00 0.00 0.00 72 1008.2
20260506072023 60 294 0.0 1.0 0.00 0.00 0.00 71 1008.2
20260506071539 60 295 0.0 1.0 0.00 0.00 0.00 70 1008.2
20260506071054 61 295 0.0 1.0 0.00 0.00 0.00 70 1008.3
20260506070548 61 295 0.0 2.0 0.00 0.00 0.00 69 1008.3
20260506062059 62 90 1.0 3.0 0.00 0.00 0.00 67 1008.3
20260506061532 62 300 1.0 3.0 0.00 0.00 0.00 67 1008.3
20260506061039 62 187 1.0 3.0 0.00 0.00 0.00 67 1008.3
20260506060531 62 283 1.0 3.0 0.00 0.00 0.00 66 1008.2
20260506051024 63 124 2.0 7.0 0.00 0.00 0.00 63 1008.5
20260506050530 63 189 1.0 3.0 0.00 0.00 0.00 63 1008.6
20260506045043 63 332 1.0 4.0 0.00 0.00 0.00 63 1008.5
20260506044528 63 331 1.0 4.0 0.00 0.00 0.00 63 1008.4
20260506044022 63 188 1.0 4.0 0.00 0.00 0.00 64 1008.5
20260506043536 63 302 1.0 6.0 0.00 0.00 0.00 63 1008.5
20260506043040 62 163 2.0 6.0 0.00 0.00 0.00 64 1008.5
20260506042554 62 164 1.0 2.0 0.00 0.00 0.00 66 1008.4
20260506042027 61 259 0.0 3.0 0.00 0.00 0.00 67 1008.3
20260506041555 61 121 1.0 3.0 0.00 0.00 0.00 68 1008.3
20260506041047 61 188 0.0 3.0 0.00 0.00 0.00 68 1008.3